Year,Month,Day,Hour,Minute,Value (Times are PST for windspeed in km/hr)
2015,12,13,00,00,0.00
2015,12,13,00,01,0.00
2015,12,13,00,02,0.00
2015,12,13,00,03,2.30
2015,12,13,00,04,0.00
2015,12,13,00,05,0.00
2015,12,13,00,06,0.00
2015,12,13,00,07,0.00
2015,12,13,00,08,0.00
2015,12,13,00,09,0.00
2015,12,13,00,10,0.00
2015,12,13,00,11,0.00
2015,12,13,00,12,0.00
2015,12,13,00,13,0.00
2015,12,13,00,14,0.00
2015,12,13,00,15,0.00
2015,12,13,00,16,0.00
2015,12,13,00,17,0.00
2015,12,13,00,18,0.00
2015,12,13,00,19,0.00
2015,12,13,00,20,0.00
2015,12,13,00,21,0.00
2015,12,13,00,22,0.00
2015,12,13,00,23,0.00
2015,12,13,00,24,0.00
2015,12,13,00,25,0.00
2015,12,13,00,26,0.00
2015,12,13,00,27,6.00
2015,12,13,00,28,1.90
2015,12,13,00,29,0.00
2015,12,13,00,30,0.00
2015,12,13,00,31,0.00
2015,12,13,00,32,0.00
2015,12,13,00,33,0.00
2015,12,13,00,34,0.00
2015,12,13,00,35,0.00
2015,12,13,00,36,0.00
2015,12,13,00,37,0.00
2015,12,13,00,38,0.00
2015,12,13,00,39,0.00
2015,12,13,00,40,0.00
2015,12,13,00,41,0.00
2015,12,13,00,42,0.00
2015,12,13,00,43,0.00
2015,12,13,00,44,2.20
2015,12,13,00,45,5.30
2015,12,13,00,46,5.10
2015,12,13,00,47,3.20
2015,12,13,00,48,5.40
2015,12,13,00,49,3.90
2015,12,13,00,50,1.90
2015,12,13,00,51,0.00
2015,12,13,00,52,0.00
2015,12,13,00,53,0.00
2015,12,13,00,54,0.60
2015,12,13,00,55,2.20
2015,12,13,00,56,4.30
2015,12,13,00,57,0.20
2015,12,13,00,58,0.00
2015,12,13,00,59,0.00
2015,12,13,01,00,0.00
2015,12,13,01,01,0.00
2015,12,13,01,02,0.00
2015,12,13,01,03,0.00
2015,12,13,01,04,0.00
2015,12,13,01,05,0.00
2015,12,13,01,06,0.00
2015,12,13,01,07,0.00
2015,12,13,01,08,2.20
2015,12,13,01,09,3.00
2015,12,13,01,10,0.40
2015,12,13,01,11,0.00
2015,12,13,01,12,0.00
2015,12,13,01,13,0.00
2015,12,13,01,14,0.00
2015,12,13,01,15,0.00
2015,12,13,01,16,0.00
2015,12,13,01,17,0.00
2015,12,13,01,18,0.00
2015,12,13,01,19,0.00
2015,12,13,01,20,0.00
2015,12,13,01,21,0.00
2015,12,13,01,22,0.00
2015,12,13,01,23,0.00
2015,12,13,01,24,0.00
2015,12,13,01,25,0.00
2015,12,13,01,26,0.00
2015,12,13,01,27,0.00
2015,12,13,01,28,0.00
2015,12,13,01,29,0.00
2015,12,13,01,30,0.00
2015,12,13,01,31,0.00
2015,12,13,01,32,0.00
2015,12,13,01,33,0.00
2015,12,13,01,34,0.00
2015,12,13,01,35,0.00
2015,12,13,01,36,0.00
2015,12,13,01,37,0.00
2015,12,13,01,38,0.00
2015,12,13,01,39,0.00
2015,12,13,01,40,0.00
2015,12,13,01,41,0.00
2015,12,13,01,42,0.00
2015,12,13,01,43,0.00
2015,12,13,01,44,0.00
2015,12,13,01,45,0.00
2015,12,13,01,46,0.00
2015,12,13,01,47,0.00
2015,12,13,01,48,0.00
2015,12,13,01,49,0.00
2015,12,13,01,50,0.00
2015,12,13,01,51,0.00
2015,12,13,01,52,0.00
2015,12,13,01,53,0.00
2015,12,13,01,54,0.00
2015,12,13,01,55,0.00
2015,12,13,01,56,0.00
2015,12,13,01,57,0.00
2015,12,13,01,58,0.00
2015,12,13,01,59,0.00
2015,12,13,02,00,0.00
2015,12,13,02,01,0.00
2015,12,13,02,02,0.00
2015,12,13,02,03,0.00
2015,12,13,02,04,0.00
2015,12,13,02,05,0.00
2015,12,13,02,06,0.00
2015,12,13,02,07,0.00
2015,12,13,02,08,0.00
2015,12,13,02,09,0.00
2015,12,13,02,10,1.40
2015,12,13,02,11,0.40
2015,12,13,02,12,0.00
2015,12,13,02,13,0.00
2015,12,13,02,14,0.00
2015,12,13,02,15,0.00
2015,12,13,02,16,0.00
2015,12,13,02,17,0.00
2015,12,13,02,18,0.00
2015,12,13,02,19,0.00
2015,12,13,02,20,0.00
2015,12,13,02,21,0.00
2015,12,13,02,22,0.40
2015,12,13,02,23,1.00
2015,12,13,02,24,0.00
2015,12,13,02,25,0.00
2015,12,13,02,26,0.00
2015,12,13,02,27,0.00
2015,12,13,02,28,0.40
2015,12,13,02,29,6.00
2015,12,13,02,30,3.90
2015,12,13,02,31,0.40
2015,12,13,02,32,0.00
2015,12,13,02,33,2.60
2015,12,13,02,34,0.50
2015,12,13,02,35,0.00
2015,12,13,02,36,0.30
2015,12,13,02,37,2.90
2015,12,13,02,38,1.00
2015,12,13,02,39,0.00
2015,12,13,02,40,1.40
2015,12,13,02,41,4.50
2015,12,13,02,42,2.60
2015,12,13,02,43,0.00
2015,12,13,02,44,0.00
2015,12,13,02,45,0.00
2015,12,13,02,46,0.00
2015,12,13,02,47,0.00
2015,12,13,02,48,0.90
2015,12,13,02,49,0.30
2015,12,13,02,50,0.00
2015,12,13,02,51,0.00
2015,12,13,02,52,0.00
2015,12,13,02,53,0.00
2015,12,13,02,54,0.00
2015,12,13,02,55,0.00
2015,12,13,02,56,0.00
2015,12,13,02,57,0.00
2015,12,13,02,58,2.60
2015,12,13,02,59,0.00
2015,12,13,03,00,0.00
2015,12,13,03,01,0.60
2015,12,13,03,02,0.10
2015,12,13,03,03,0.00
2015,12,13,03,04,5.10
2015,12,13,03,05,3.80
2015,12,13,03,06,4.20
2015,12,13,03,07,4.30
2015,12,13,03,08,3.00
2015,12,13,03,09,1.10
2015,12,13,03,10,0.00
2015,12,13,03,11,1.90
2015,12,13,03,12,3.30
2015,12,13,03,13,0.00
2015,12,13,03,14,0.00
2015,12,13,03,15,0.00
2015,12,13,03,16,0.00
2015,12,13,03,17,2.70
2015,12,13,03,18,8.50
2015,12,13,03,19,3.80
2015,12,13,03,20,5.20
2015,12,13,03,21,5.60
2015,12,13,03,22,5.10
2015,12,13,03,23,5.30
2015,12,13,03,24,3.90
2015,12,13,03,25,3.80
2015,12,13,03,26,1.90
2015,12,13,03,27,2.10
2015,12,13,03,28,3.00
2015,12,13,03,29,2.40
2015,12,13,03,30,1.90
2015,12,13,03,31,3.60
2015,12,13,03,32,5.00
2015,12,13,03,33,4.70
2015,12,13,03,34,5.60
2015,12,13,03,35,4.30
2015,12,13,03,36,5.50
2015,12,13,03,37,4.70
2015,12,13,03,38,6.70
2015,12,13,03,39,7.10
2015,12,13,03,40,8.50
2015,12,13,03,41,6.40
2015,12,13,03,42,6.80
2015,12,13,03,43,6.30
2015,12,13,03,44,4.60
2015,12,13,03,45,6.40
2015,12,13,03,46,5.60
2015,12,13,03,47,3.50
2015,12,13,03,48,4.60
2015,12,13,03,49,3.80
2015,12,13,03,50,2.30
2015,12,13,03,51,4.50
2015,12,13,03,52,5.00
2015,12,13,03,53,5.70
2015,12,13,03,54,6.80
2015,12,13,03,55,5.40
2015,12,13,03,56,3.30
2015,12,13,03,57,2.10
2015,12,13,03,58,4.20
2015,12,13,03,59,4.70
2015,12,13,04,00,2.70
2015,12,13,04,01,5.70
2015,12,13,04,02,6.90
2015,12,13,04,03,7.20
2015,12,13,04,04,6.70
2015,12,13,04,05,5.40
2015,12,13,04,06,7.40
2015,12,13,04,07,5.30
2015,12,13,04,08,5.80
2015,12,13,04,09,8.70
2015,12,13,04,10,5.60
2015,12,13,04,11,4.70
2015,12,13,04,12,2.30
2015,12,13,04,13,2.90
2015,12,13,04,14,2.80
2015,12,13,04,15,3.80
2015,12,13,04,16,2.50
2015,12,13,04,17,5.10
2015,12,13,04,18,3.00
2015,12,13,04,19,4.10
2015,12,13,04,20,2.20
2015,12,13,04,21,1.60
2015,12,13,04,22,4.00
2015,12,13,04,23,3.90
2015,12,13,04,24,7.50
2015,12,13,04,25,5.00
2015,12,13,04,26,5.40
2015,12,13,04,27,4.60
2015,12,13,04,28,1.10
2015,12,13,04,29,5.70
2015,12,13,04,30,6.50
2015,12,13,04,31,3.70
2015,12,13,04,32,3.90
2015,12,13,04,33,2.60
2015,12,13,04,34,3.90
2015,12,13,04,35,4.40
2015,12,13,04,36,6.10
2015,12,13,04,37,2.30
2015,12,13,04,38,3.10
2015,12,13,04,39,9.20
2015,12,13,04,40,6.10
2015,12,13,04,41,3.50
2015,12,13,04,42,4.60
2015,12,13,04,43,5.20
2015,12,13,04,44,2.80
2015,12,13,04,45,0.90
2015,12,13,04,46,0.00
2015,12,13,04,47,6.80
2015,12,13,04,48,6.80
2015,12,13,04,49,1.40
2015,12,13,04,50,2.10
2015,12,13,04,51,3.00
2015,12,13,04,52,3.80
2015,12,13,04,53,0.00
2015,12,13,04,54,0.00
2015,12,13,04,55,0.00
2015,12,13,04,56,0.00
2015,12,13,04,57,1.70
2015,12,13,04,58,3.50
2015,12,13,04,59,1.80
2015,12,13,05,00,0.10
2015,12,13,05,01,1.10
2015,12,13,05,02,1.00
2015,12,13,05,03,4.30
2015,12,13,05,04,3.70
2015,12,13,05,05,0.00
2015,12,13,05,06,0.00
2015,12,13,05,07,4.40
2015,12,13,05,08,0.20
2015,12,13,05,09,1.30
2015,12,13,05,10,0.70
2015,12,13,05,11,4.20
2015,12,13,05,12,0.20
2015,12,13,05,13,0.00
2015,12,13,05,14,3.10
2015,12,13,05,15,0.00
2015,12,13,05,16,3.00
2015,12,13,05,17,4.70
2015,12,13,05,18,2.70
2015,12,13,05,19,0.00
2015,12,13,05,20,0.00
2015,12,13,05,21,5.10
2015,12,13,05,22,2.60
2015,12,13,05,23,1.20
2015,12,13,05,24,4.80
2015,12,13,05,25,6.00
2015,12,13,05,26,5.00
2015,12,13,05,27,5.60
2015,12,13,05,28,3.50
2015,12,13,05,29,0.30
2015,12,13,05,30,3.30
2015,12,13,05,31,5.20
2015,12,13,05,32,5.90
2015,12,13,05,33,2.20
2015,12,13,05,34,3.40
2015,12,13,05,35,2.50
2015,12,13,05,36,0.00
2015,12,13,05,37,0.00
2015,12,13,05,38,1.60
2015,12,13,05,39,4.40
2015,12,13,05,40,0.00
2015,12,13,05,41,2.80
2015,12,13,05,42,3.40
2015,12,13,05,43,0.70
2015,12,13,05,44,2.60
2015,12,13,05,45,2.20
2015,12,13,05,46,0.00
2015,12,13,05,47,3.50
2015,12,13,05,48,1.30
2015,12,13,05,49,0.50
2015,12,13,05,50,0.00
2015,12,13,05,51,3.90
2015,12,13,05,52,3.90
2015,12,13,05,53,2.30
2015,12,13,05,54,1.20
2015,12,13,05,55,0.50
2015,12,13,05,56,3.50
2015,12,13,05,57,4.90
2015,12,13,05,58,5.20
2015,12,13,05,59,6.70
2015,12,13,06,00,4.40
2015,12,13,06,01,2.50
2015,12,13,06,02,7.30
2015,12,13,06,03,6.00
2015,12,13,06,04,4.40
2015,12,13,06,05,4.70
2015,12,13,06,06,8.40
2015,12,13,06,07,4.40
2015,12,13,06,08,6.30
2015,12,13,06,09,0.60
2015,12,13,06,10,0.60
2015,12,13,06,11,2.70
2015,12,13,06,12,0.00
2015,12,13,06,13,4.80
2015,12,13,06,14,3.20
2015,12,13,06,15,0.60
2015,12,13,06,16,1.90
2015,12,13,06,17,2.20
2015,12,13,06,18,0.00
2015,12,13,06,19,3.40
2015,12,13,06,20,0.60
2015,12,13,06,21,0.00
2015,12,13,06,22,0.10
2015,12,13,06,23,4.40
2015,12,13,06,24,3.50
2015,12,13,06,25,5.50
2015,12,13,06,26,6.60
2015,12,13,06,27,2.30
2015,12,13,06,28,5.50
2015,12,13,06,29,3.50
2015,12,13,06,30,0.80
2015,12,13,06,31,2.60
2015,12,13,06,32,2.20
2015,12,13,06,33,3.40
2015,12,13,06,34,2.10
2015,12,13,06,35,0.60
2015,12,13,06,36,0.40
2015,12,13,06,37,5.50
2015,12,13,06,38,2.80
2015,12,13,06,39,0.00
2015,12,13,06,40,3.80
2015,12,13,06,41,0.80
2015,12,13,06,42,0.60
2015,12,13,06,43,0.00
2015,12,13,06,44,0.00
2015,12,13,06,45,0.00
2015,12,13,06,46,0.00
2015,12,13,06,47,1.00
2015,12,13,06,48,4.70
2015,12,13,06,49,4.50
2015,12,13,06,50,2.80
2015,12,13,06,51,3.70
2015,12,13,06,52,5.10
2015,12,13,06,53,7.50
2015,12,13,06,54,1.90
2015,12,13,06,55,0.20
2015,12,13,06,56,0.10
2015,12,13,06,57,0.00
2015,12,13,06,58,0.00
2015,12,13,06,59,1.60
2015,12,13,07,00,2.80
2015,12,13,07,01,0.00
2015,12,13,07,02,1.70
2015,12,13,07,03,0.00
2015,12,13,07,04,0.00
2015,12,13,07,05,0.00
2015,12,13,07,06,0.00
2015,12,13,07,07,0.00
2015,12,13,07,08,0.00
2015,12,13,07,09,0.00
2015,12,13,07,10,0.00
2015,12,13,07,11,0.00
2015,12,13,07,12,0.00
2015,12,13,07,13,0.60
2015,12,13,07,14,2.40
2015,12,13,07,15,0.00
2015,12,13,07,16,0.00
2015,12,13,07,17,0.00
2015,12,13,07,18,0.00
2015,12,13,07,19,1.80
2015,12,13,07,20,0.00
2015,12,13,07,21,0.00
2015,12,13,07,22,0.00
2015,12,13,07,23,0.00
2015,12,13,07,24,0.00
2015,12,13,07,25,0.00
2015,12,13,07,26,2.40
2015,12,13,07,27,0.40
2015,12,13,07,28,0.00
2015,12,13,07,29,0.60
2015,12,13,07,30,2.30
2015,12,13,07,31,0.20
2015,12,13,07,32,2.50
2015,12,13,07,33,0.40
2015,12,13,07,34,1.20
2015,12,13,07,35,4.70
2015,12,13,07,36,2.50
2015,12,13,07,37,5.40
2015,12,13,07,38,3.40
2015,12,13,07,39,1.50
2015,12,13,07,40,3.30
2015,12,13,07,41,6.00
2015,12,13,07,42,3.20
2015,12,13,07,43,0.00
2015,12,13,07,44,2.80
2015,12,13,07,45,1.80
2015,12,13,07,46,2.80
2015,12,13,07,47,3.90
2015,12,13,07,48,7.70
2015,12,13,07,49,5.20
2015,12,13,07,50,0.00
2015,12,13,07,51,2.30
2015,12,13,07,52,3.60
2015,12,13,07,53,0.00
2015,12,13,07,54,3.30
2015,12,13,07,55,3.10
2015,12,13,07,56,8.50
2015,12,13,07,57,6.10
2015,12,13,07,58,3.30
2015,12,13,07,59,3.20
2015,12,13,08,00,4.30
2015,12,13,08,01,6.90
2015,12,13,08,02,6.70
2015,12,13,08,03,6.10
2015,12,13,08,04,3.50
2015,12,13,08,05,2.80
2015,12,13,08,06,4.10
2015,12,13,08,07,3.50
2015,12,13,08,08,5.00
2015,12,13,08,09,5.40
2015,12,13,08,10,3.10
2015,12,13,08,11,0.00
2015,12,13,08,12,2.00
2015,12,13,08,13,3.60
2015,12,13,08,14,4.20
2015,12,13,08,15,6.50
2015,12,13,08,16,4.70
2015,12,13,08,17,5.80
2015,12,13,08,18,4.30
2015,12,13,08,19,5.80
2015,12,13,08,20,4.70
2015,12,13,08,21,3.70
2015,12,13,08,22,6.60
2015,12,13,08,23,2.40
2015,12,13,08,24,4.20
2015,12,13,08,25,2.90
2015,12,13,08,26,5.30
2015,12,13,08,27,7.80
2015,12,13,08,28,5.50
2015,12,13,08,29,2.40
2015,12,13,08,30,4.80
2015,12,13,08,31,3.00
2015,12,13,08,32,0.10
2015,12,13,08,33,1.20
2015,12,13,08,34,1.80
2015,12,13,08,35,1.10
2015,12,13,08,36,2.90
2015,12,13,08,37,2.70
2015,12,13,08,38,1.10
2015,12,13,08,39,8.60
2015,12,13,08,40,13.40
2015,12,13,08,41,6.60
2015,12,13,08,42,4.10
2015,12,13,08,43,3.90
2015,12,13,08,44,6.40
2015,12,13,08,45,6.50
2015,12,13,08,46,2.30
2015,12,13,08,47,9.30
2015,12,13,08,48,3.40
2015,12,13,08,49,4.30
2015,12,13,08,50,1.90
2015,12,13,08,51,6.70
2015,12,13,08,52,9.40
2015,12,13,08,53,8.70
2015,12,13,08,54,5.40
2015,12,13,08,55,4.30
2015,12,13,08,56,6.40
2015,12,13,08,57,4.10
2015,12,13,08,58,6.70
2015,12,13,08,59,4.00
2015,12,13,09,00,3.70
2015,12,13,09,01,5.10
2015,12,13,09,02,6.30
2015,12,13,09,03,4.70
2015,12,13,09,04,3.20
2015,12,13,09,05,7.20
2015,12,13,09,06,7.40
2015,12,13,09,07,4.60
2015,12,13,09,08,6.80
2015,12,13,09,09,4.40
2015,12,13,09,10,0.50
2015,12,13,09,11,0.00
2015,12,13,09,12,3.50
2015,12,13,09,13,5.10
2015,12,13,09,14,4.80
2015,12,13,09,15,1.10
2015,12,13,09,16,5.20
2015,12,13,09,17,5.70
2015,12,13,09,18,7.20
2015,12,13,09,19,7.10
2015,12,13,09,20,4.90
2015,12,13,09,21,3.20
2015,12,13,09,22,6.90
2015,12,13,09,23,6.40
2015,12,13,09,24,7.40
2015,12,13,09,25,7.10
2015,12,13,09,26,2.80
2015,12,13,09,27,3.50
2015,12,13,09,28,8.30
2015,12,13,09,29,6.00
2015,12,13,09,30,5.30
2015,12,13,09,31,3.80
2015,12,13,09,32,4.90
2015,12,13,09,33,6.70
2015,12,13,09,34,5.40
2015,12,13,09,35,3.70
2015,12,13,09,36,4.60
2015,12,13,09,37,6.80
2015,12,13,09,38,2.90
2015,12,13,09,39,5.60
2015,12,13,09,40,4.50
2015,12,13,09,41,1.30
2015,12,13,09,42,0.10
2015,12,13,09,43,5.30
2015,12,13,09,44,4.70
2015,12,13,09,45,5.10
2015,12,13,09,46,6.00
2015,12,13,09,47,8.80
2015,12,13,09,48,8.60
2015,12,13,09,49,6.80
2015,12,13,09,50,2.20
2015,12,13,09,51,7.20
2015,12,13,09,52,7.50
2015,12,13,09,53,8.00
2015,12,13,09,54,7.50
2015,12,13,09,55,6.00
2015,12,13,09,56,6.00
2015,12,13,09,57,5.80
2015,12,13,09,58,4.70
2015,12,13,09,59,6.10
2015,12,13,10,00,5.50
2015,12,13,10,01,4.30
2015,12,13,10,02,6.10
2015,12,13,10,03,10.90
2015,12,13,10,04,10.00
2015,12,13,10,05,6.90
2015,12,13,10,06,4.40
2015,12,13,10,07,4.00
2015,12,13,10,08,3.20
2015,12,13,10,09,4.70
2015,12,13,10,10,4.70
2015,12,13,10,11,0.90
2015,12,13,10,12,0.00
2015,12,13,10,13,0.00
2015,12,13,10,14,0.10
2015,12,13,10,15,0.80
2015,12,13,10,16,1.10
2015,12,13,10,17,0.00
2015,12,13,10,18,0.50
2015,12,13,10,19,2.20
2015,12,13,10,20,0.00
2015,12,13,10,21,0.00
2015,12,13,10,22,0.00
2015,12,13,10,23,0.00
2015,12,13,10,24,0.00
2015,12,13,10,25,2.30
2015,12,13,10,26,1.40
2015,12,13,10,27,3.10
2015,12,13,10,28,0.50
2015,12,13,10,29,3.20
2015,12,13,10,30,0.00
2015,12,13,10,31,0.70
2015,12,13,10,32,0.00
2015,12,13,10,33,2.50
2015,12,13,10,34,0.00
2015,12,13,10,35,0.00
2015,12,13,10,36,0.00
2015,12,13,10,37,3.10
2015,12,13,10,38,4.00
2015,12,13,10,39,0.20
2015,12,13,10,40,0.00
2015,12,13,10,41,0.00
2015,12,13,10,42,0.00
2015,12,13,10,43,0.00
2015,12,13,10,44,5.80
2015,12,13,10,45,2.80
2015,12,13,10,46,2.60
2015,12,13,10,47,0.00
2015,12,13,10,48,3.30
2015,12,13,10,49,2.60
2015,12,13,10,50,2.20
2015,12,13,10,51,1.90
2015,12,13,10,52,0.60
2015,12,13,10,53,1.80
2015,12,13,10,54,0.00
2015,12,13,10,55,2.40
2015,12,13,10,56,2.30
2015,12,13,10,57,0.00
2015,12,13,10,58,0.40
2015,12,13,10,59,1.50
2015,12,13,11,00,0.00
2015,12,13,11,01,2.40
2015,12,13,11,02,1.40
2015,12,13,11,03,0.70
2015,12,13,11,04,5.40
2015,12,13,11,05,0.30
2015,12,13,11,06,3.50
2015,12,13,11,07,5.20
2015,12,13,11,08,1.90
2015,12,13,11,09,5.10
2015,12,13,11,10,8.20
2015,12,13,11,11,1.70
2015,12,13,11,12,3.70
2015,12,13,11,13,4.30
2015,12,13,11,14,3.70
2015,12,13,11,15,3.50
2015,12,13,11,16,2.90
2015,12,13,11,17,1.10
2015,12,13,11,18,1.80
2015,12,13,11,19,1.20
2015,12,13,11,20,3.30
2015,12,13,11,21,4.70
2015,12,13,11,22,1.50
2015,12,13,11,23,0.00
2015,12,13,11,24,2.30
2015,12,13,11,25,0.10
2015,12,13,11,26,3.10
2015,12,13,11,27,1.70
2015,12,13,11,28,4.20
2015,12,13,11,29,1.70
2015,12,13,11,30,2.30
2015,12,13,11,31,3.90
2015,12,13,11,32,0.00
2015,12,13,11,33,0.00
2015,12,13,11,34,0.00
2015,12,13,11,35,0.00
2015,12,13,11,36,1.00
2015,12,13,11,37,4.60
2015,12,13,11,38,2.60
2015,12,13,11,39,3.50
2015,12,13,11,40,3.90
2015,12,13,11,41,3.10
2015,12,13,11,42,3.50
2015,12,13,11,43,5.50
2015,12,13,11,44,0.90
2015,12,13,11,45,0.00
2015,12,13,11,46,0.00
2015,12,13,11,47,0.20
2015,12,13,11,48,5.60
2015,12,13,11,49,5.70
2015,12,13,11,50,2.20
2015,12,13,11,51,2.60
2015,12,13,11,52,5.10
2015,12,13,11,53,5.30
2015,12,13,11,54,7.40
2015,12,13,11,55,0.40
2015,12,13,11,56,0.00
2015,12,13,11,57,0.00
2015,12,13,11,58,2.40
2015,12,13,11,59,0.60
2015,12,13,12,00,6.50
2015,12,13,12,01,1.20
2015,12,13,12,02,0.00
2015,12,13,12,03,1.10
2015,12,13,12,04,4.10
2015,12,13,12,05,0.10
2015,12,13,12,06,3.30
2015,12,13,12,07,0.30
2015,12,13,12,08,3.80
2015,12,13,12,09,5.60
2015,12,13,12,10,5.50
2015,12,13,12,11,7.30
2015,12,13,12,12,8.00
2015,12,13,12,13,4.80
2015,12,13,12,14,7.50
2015,12,13,12,15,5.90
2015,12,13,12,16,1.10
2015,12,13,12,17,6.80
2015,12,13,12,18,2.20
2015,12,13,12,19,0.30
2015,12,13,12,20,4.90
2015,12,13,12,21,2.30
2015,12,13,12,22,5.60
2015,12,13,12,23,8.00
2015,12,13,12,24,4.10
2015,12,13,12,25,4.70
2015,12,13,12,26,2.20
2015,12,13,12,27,7.40
2015,12,13,12,28,2.10
2015,12,13,12,29,2.90
2015,12,13,12,30,4.40
2015,12,13,12,31,11.30
2015,12,13,12,32,7.50
2015,12,13,12,33,2.30
2015,12,13,12,34,6.90
2015,12,13,12,35,6.40
2015,12,13,12,36,5.60
2015,12,13,12,37,6.30
2015,12,13,12,38,6.40
2015,12,13,12,39,10.40
2015,12,13,12,40,13.70
2015,12,13,12,41,10.40
2015,12,13,12,42,5.80
2015,12,13,12,43,5.90
2015,12,13,12,44,8.40
2015,12,13,12,45,11.70
2015,12,13,12,46,9.80
2015,12,13,12,47,9.50
2015,12,13,12,48,14.90
2015,12,13,12,49,11.30
2015,12,13,12,50,12.60
2015,12,13,12,51,14.70
2015,12,13,12,52,17.60
2015,12,13,12,53,11.20
2015,12,13,12,54,4.30
2015,12,13,12,55,10.30
2015,12,13,12,56,7.10
2015,12,13,12,57,10.30
2015,12,13,12,58,4.40
2015,12,13,12,59,3.30
2015,12,13,13,00,14.00
2015,12,13,13,01,18.20
2015,12,13,13,02,11.50
2015,12,13,13,03,5.20
2015,12,13,13,04,3.80
2015,12,13,13,05,8.30
2015,12,13,13,06,4.10
2015,12,13,13,07,5.40
2015,12,13,13,08,3.60
2015,12,13,13,09,8.90
2015,12,13,13,10,11.50
2015,12,13,13,11,4.00
2015,12,13,13,12,13.90
2015,12,13,13,13,13.60
2015,12,13,13,14,12.10
2015,12,13,13,15,12.90
2015,12,13,13,16,5.60
2015,12,13,13,17,7.40
2015,12,13,13,18,4.60
2015,12,13,13,19,2.80
2015,12,13,13,20,1.80
2015,12,13,13,21,4.30
2015,12,13,13,22,2.90
2015,12,13,13,23,2.30
2015,12,13,13,24,1.50
2015,12,13,13,25,0.80
2015,12,13,13,26,0.10
2015,12,13,13,27,0.00
2015,12,13,13,28,0.00
2015,12,13,13,29,0.00
2015,12,13,13,30,1.30
2015,12,13,13,31,1.30
2015,12,13,13,32,1.20
2015,12,13,13,33,2.10
2015,12,13,13,34,1.50
2015,12,13,13,35,0.10
2015,12,13,13,36,0.20
2015,12,13,13,37,1.70
2015,12,13,13,38,1.60
2015,12,13,13,39,0.10
2015,12,13,13,40,1.60
2015,12,13,13,41,1.90
2015,12,13,13,42,0.80
2015,12,13,13,43,0.00
2015,12,13,13,44,0.00
2015,12,13,13,45,0.00
2015,12,13,13,46,0.60
2015,12,13,13,47,3.40
2015,12,13,13,48,1.30
2015,12,13,13,49,1.00
2015,12,13,13,50,0.00
2015,12,13,13,51,0.00
2015,12,13,13,52,0.00
2015,12,13,13,53,3.40
2015,12,13,13,54,0.20
2015,12,13,13,55,0.00
2015,12,13,13,56,2.80
2015,12,13,13,57,0.50
2015,12,13,13,58,0.00
2015,12,13,13,59,1.40
2015,12,13,14,00,0.20
2015,12,13,14,01,0.00
2015,12,13,14,02,0.00
2015,12,13,14,03,0.00
2015,12,13,14,04,0.00
2015,12,13,14,05,0.00
2015,12,13,14,06,0.00
2015,12,13,14,07,3.80
2015,12,13,14,08,1.50
2015,12,13,14,09,0.00
2015,12,13,14,10,0.00
2015,12,13,14,11,0.00
2015,12,13,14,12,0.00
2015,12,13,14,13,0.00
2015,12,13,14,14,0.00
2015,12,13,14,15,0.00
2015,12,13,14,16,0.00
2015,12,13,14,17,0.00
2015,12,13,14,18,0.00
2015,12,13,14,19,0.10
2015,12,13,14,20,0.00
2015,12,13,14,21,0.10
2015,12,13,14,22,0.00
2015,12,13,14,23,0.00
2015,12,13,14,24,0.00
2015,12,13,14,25,0.00
2015,12,13,14,26,0.00
2015,12,13,14,27,1.90
2015,12,13,14,28,2.60
2015,12,13,14,29,2.30
2015,12,13,14,30,3.70
2015,12,13,14,31,5.10
2015,12,13,14,32,3.10
2015,12,13,14,33,4.30
2015,12,13,14,34,3.00
2015,12,13,14,35,0.80
2015,12,13,14,36,0.00
2015,12,13,14,37,0.00
2015,12,13,14,38,0.00
2015,12,13,14,39,0.00
2015,12,13,14,40,0.00
2015,12,13,14,41,0.00
2015,12,13,14,42,0.00
2015,12,13,14,43,0.00
2015,12,13,14,44,0.80
2015,12,13,14,45,0.00
2015,12,13,14,46,0.00
2015,12,13,14,47,0.00
2015,12,13,14,48,0.00
2015,12,13,14,49,0.00
2015,12,13,14,50,0.00
2015,12,13,14,51,0.00
2015,12,13,14,52,0.00
2015,12,13,14,53,0.00
2015,12,13,14,54,0.00
2015,12,13,14,55,0.00
2015,12,13,14,56,0.00
2015,12,13,14,57,0.00
2015,12,13,14,58,0.00
2015,12,13,14,59,0.00
2015,12,13,15,00,0.00
2015,12,13,15,01,0.00
2015,12,13,15,02,0.00
2015,12,13,15,03,0.00
2015,12,13,15,04,0.00
2015,12,13,15,05,0.00
2015,12,13,15,06,0.00
2015,12,13,15,07,0.00
2015,12,13,15,08,0.00
2015,12,13,15,09,0.00
2015,12,13,15,10,0.00
2015,12,13,15,11,0.00
2015,12,13,15,12,0.00
2015,12,13,15,13,0.00
2015,12,13,15,14,0.00
2015,12,13,15,15,0.00
2015,12,13,15,16,0.00
2015,12,13,15,17,0.00
2015,12,13,15,18,0.00
2015,12,13,15,19,0.00
2015,12,13,15,20,0.00
2015,12,13,15,21,0.00
2015,12,13,15,22,0.00
2015,12,13,15,23,0.00
2015,12,13,15,24,0.00
2015,12,13,15,25,0.00
2015,12,13,15,26,0.00
2015,12,13,15,27,0.00
2015,12,13,15,28,0.00
2015,12,13,15,29,0.00
2015,12,13,15,30,0.00
2015,12,13,15,31,0.00
2015,12,13,15,32,0.00
2015,12,13,15,33,0.00
2015,12,13,15,34,0.00
2015,12,13,15,35,0.00
2015,12,13,15,36,0.00
2015,12,13,15,37,0.00
2015,12,13,15,38,0.00
2015,12,13,15,39,0.00
2015,12,13,15,40,0.00
2015,12,13,15,41,0.00
2015,12,13,15,42,0.00
2015,12,13,15,43,0.00
2015,12,13,15,44,0.00
2015,12,13,15,45,0.00
2015,12,13,15,46,0.00
2015,12,13,15,47,0.00
2015,12,13,15,48,0.00
2015,12,13,15,49,0.00
2015,12,13,15,50,0.00
2015,12,13,15,51,0.00
2015,12,13,15,52,0.00
2015,12,13,15,53,0.00
2015,12,13,15,54,0.00
2015,12,13,15,55,0.00
2015,12,13,15,56,0.00
2015,12,13,15,57,0.00
2015,12,13,15,58,0.00
2015,12,13,15,59,0.00
2015,12,13,16,00,0.00
2015,12,13,16,01,0.00
2015,12,13,16,02,0.00
2015,12,13,16,03,0.00
2015,12,13,16,04,0.00
2015,12,13,16,05,0.00
2015,12,13,16,06,0.00
2015,12,13,16,07,0.00
2015,12,13,16,08,0.00
2015,12,13,16,09,0.00
2015,12,13,16,10,0.60
2015,12,13,16,11,0.00
2015,12,13,16,12,0.00
2015,12,13,16,13,0.00
2015,12,13,16,14,0.00
2015,12,13,16,15,0.00
2015,12,13,16,16,0.00
2015,12,13,16,17,0.00
2015,12,13,16,18,0.00
2015,12,13,16,19,1.90
2015,12,13,16,20,1.60
2015,12,13,16,21,0.60
2015,12,13,16,22,0.00
2015,12,13,16,23,0.00
2015,12,13,16,24,0.00
2015,12,13,16,25,0.00
2015,12,13,16,26,2.10
2015,12,13,16,27,6.00
2015,12,13,16,28,8.70
2015,12,13,16,29,5.40
2015,12,13,16,30,7.60
2015,12,13,16,31,4.70
2015,12,13,16,32,6.20
2015,12,13,16,33,3.40
2015,12,13,16,34,3.60
2015,12,13,16,35,3.00
2015,12,13,16,36,2.40
2015,12,13,16,37,3.60
2015,12,13,16,38,3.90
2015,12,13,16,39,4.70
2015,12,13,16,40,4.20
2015,12,13,16,41,5.70
2015,12,13,16,42,4.90
2015,12,13,16,43,0.40
2015,12,13,16,44,0.00
2015,12,13,16,45,0.00
2015,12,13,16,46,3.40
2015,12,13,16,47,2.40
2015,12,13,16,48,1.60
2015,12,13,16,49,4.70
2015,12,13,16,50,1.90
2015,12,13,16,51,0.00
2015,12,13,16,52,0.00
2015,12,13,16,53,0.10
2015,12,13,16,54,1.90
2015,12,13,16,55,3.50
2015,12,13,16,56,4.30
2015,12,13,16,57,2.40
2015,12,13,16,58,5.60
2015,12,13,16,59,2.40
2015,12,13,17,00,0.00
2015,12,13,17,01,0.00
2015,12,13,17,02,2.50
2015,12,13,17,03,2.20
2015,12,13,17,04,3.50
2015,12,13,17,05,0.00
2015,12,13,17,06,0.70
2015,12,13,17,07,1.20
2015,12,13,17,08,1.50
2015,12,13,17,09,3.50
2015,12,13,17,10,2.80
2015,12,13,17,11,0.60
2015,12,13,17,12,3.40
2015,12,13,17,13,1.80
2015,12,13,17,14,0.00
2015,12,13,17,15,0.00
2015,12,13,17,16,0.10
2015,12,13,17,17,1.90
2015,12,13,17,18,0.90
2015,12,13,17,19,0.00
2015,12,13,17,20,0.00
2015,12,13,17,21,0.00
2015,12,13,17,22,1.60
2015,12,13,17,23,2.70
2015,12,13,17,24,0.00
2015,12,13,17,25,3.10
2015,12,13,17,26,0.00
2015,12,13,17,27,1.30
2015,12,13,17,28,3.30
2015,12,13,17,29,5.00
2015,12,13,17,30,4.60
2015,12,13,17,31,0.60
2015,12,13,17,32,0.00
2015,12,13,17,33,0.00
2015,12,13,17,34,4.20
2015,12,13,17,35,1.80
2015,12,13,17,36,6.00
2015,12,13,17,37,4.90
2015,12,13,17,38,5.30
2015,12,13,17,39,3.10
2015,12,13,17,40,2.10
2015,12,13,17,41,1.60
2015,12,13,17,42,6.00
2015,12,13,17,43,3.40
2015,12,13,17,44,5.10
2015,12,13,17,45,2.70
2015,12,13,17,46,2.60
2015,12,13,17,47,3.10
2015,12,13,17,48,2.70
2015,12,13,17,49,4.20
2015,12,13,17,50,2.60
2015,12,13,17,51,0.20
2015,12,13,17,52,3.70
2015,12,13,17,53,4.70
2015,12,13,17,54,4.10
2015,12,13,17,55,5.20
2015,12,13,17,56,6.30
2015,12,13,17,57,5.60
2015,12,13,17,58,1.40
2015,12,13,17,59,3.50
2015,12,13,18,00,0.60
2015,12,13,18,01,3.50
2015,12,13,18,02,0.00
2015,12,13,18,03,5.10
2015,12,13,18,04,5.30
2015,12,13,18,05,1.30